Miscellaneous Local Product
Issued by NWS Hastings, NE

Home | Current Version | Previous Version | Text Only | Print | Product List | Glossary Off
Versions: 1 2 3 4 5 6 7 8 9 10 11 12 13 14 15 16 17 18 19 20 21 22 23 24 25 26 27 28 29 30 31 32 33 34 35 36 37 38 39 40 41 42 43 44 45 46 47 48 49 50

000
AXUS43 KGID 211702
MISGRI

GID CWA HOURLY WEATHER ROUNDUP
NATIONAL WEATHER SERVICE HASTINGS NE
1100 AM CST TUE NOV 21 2017

NOTE: "FAIR" INDICATES FEW OR NO CLOUDS BELOW 12,000 FEET WITH NO
SIGNIFICANT WEATHER AND/OR OBSTRUCTIONS TO VISIBILITY.

...SOUTH CENTRAL NEBRASKA...

CITY           SKY/WX    TMP DP  RH WIND       PRES   REMARKS
GRAND ISLAND   SUNNY     36  16  44 N30G36    30.25R WCI  23
KEARNEY        SUNNY     39  21  48 N24G31    30.26R WCI  28
HASTINGS       SUNNY     38  19  46 N31G39    30.25R WCI  25
ORD            SUNNY     33  11  39 NW32G48   30.26R WCI  19
YORK           SUNNY     36  16  44 N24G36    30.23R WCI  24
AURORA         SUNNY     36  14  40 N26G36    30.24R WCI  24
LEXINGTON      SUNNY     40  23  50 N20G28    30.27R WCI  31
HOLDREGE       SUNNY     39  26  58 N21G29    30.25R WCI  29
HEBRON         SUNNY     41  19  40 N23G39    30.22R

...NEBRASKA PANHANDLE...

CITY           SKY/WX    TMP DP  RH WIND       PRES   REMARKS
CHADRON        CLOUDY    33  25  72 NW10      30.33R WCI  25
ALLIANCE       CLOUDY    33  26  75 N10       30.31R WCI  25
SCOTTSBLUFF    PTSUNNY   40  27  59 MISG      30.33R
SIDNEY         CLOUDY    36  26  67 N14       30.31R WCI  27

...WESTERN AND NORTH CENTRAL NEBRASKA...

CITY           SKY/WX    TMP DP  RH WIND       PRES   REMARKS
VALENTINE      SUNNY     24   7  48 NW18G28   30.33R WCI  10
AINSWORTH      SUNNY     24  10  55 N18G26    30.33R WCI  10
ONEILL         SUNNY     22  14  71 NW24      30.32R WCI   5
BROKEN BOW     SUNNY     35  18  49 N25G36    30.27R WCI  23
IMPERIAL       SUNNY     42  23  46 N21G26    30.29
NORTH PLATTE   SUNNY     39  20  46 N22G30    30.28R WCI  29
MCCOOK         MOSUNNY   42  25  50 N22G28    30.27R

...EASTERN NEBRASKA...

CITY           SKY/WX    TMP DP  RH WIND       PRES   REMARKS
NORFOLK        SUNNY     24   9  52 NW23      30.26R WCI   9
SO SIOUX CITY  SUNNY     24  10  55 N31       30.24R WCI   7
TEKAMAH        SUNNY     27  11  51 N18G33    30.24R WCI  14
COLUMBUS       SUNNY     29  12  49 NW26G36   30.26R WCI  14
ALBION         SUNNY     28  11  48 NW25      30.27R WCI  14
OMAHA EPPLEY   MOSUNNY   30  13  49 N29G36    30.19R WCI  15
OFFUTT AFB     SUNNY     33  10  38 NW23G38   30.19R WCI  20
MILLARD        SUNNY     31  12  45 NW18G25   30.22R WCI  19
LINCOLN        SUNNY     38   9  30 NW26G37   30.21R WCI  26
NEBRASKA CITY  SUNNY     37  12  34 N31G39    30.16R WCI  25
BEATRICE       MOSUNNY   42  11  28 N29G37    30.20R
FALLS CITY     SUNNY     45  15  30 NW23G35   30.13R

...NORTHERN KANSAS...

CITY           SKY/WX    TMP DP  RH WIND       PRES   REMARKS
GOODLAND       SUNNY     42  26  53 N20G28    30.26R
HILL CITY      SUNNY     45  26  47 N20G30    30.26R
NORTON         SUNNY     43  19  39 N16G25    30.25R
PHILLIPSBURG   SUNNY     45  23  42 N23G29    30.25R
SMITH CENTER   MOSUNNY   41  25  52 N26G35    30.22R
HAYS           SUNNY     47  25  42 NE25G32   30.22R
RUSSELL        SUNNY     47  29  49 N22G30    30.21R
CONCORDIA      SUNNY     44  26  49 N23G35    30.20R
SALINA         SUNNY     51  29  42 N25       30.18R
TOPEKA         SUNNY     50  29  44 N22G33    30.11R



USA.gov is the U.S. government's official web portal to all federal, state and local government web resources and services.